Hourly Data Report for October 10, 2014

All times are specified in Local Standard Time (LST). Add 1 hour to adjust for Daylight Saving Time where and when it is observed.

QIKIQTARJUAQ A
NUNAVUT

67°32'48.000" N
64°01'54.000" W
5.50 m
2400577
YVM

Download Data

Hourly Data (October 2014)
Hourly Data Report for October 10, 2014
Temp Definition
°C
Dew Point Temp Definition
°C
Rel Hum Definition
%
Wind Dir Definition
10's deg

Wind Spd Definition
km/h
Visibility Definition
km
Stn Press Definition
kPa
Hmdx Definition


Wind Chill Definition


Weather Definition


TIME
00:00 Legend Double Dagger -2.4 -2.8 97   0 1.6 101.06     Snow
01:00 Legend Double Dagger -2.0 -2.6 96 4 5 1.6 101.00   -4 Snow
02:00 Legend Double Dagger -1.3 -1.9 96 34 18 2.0 100.87   -7 Snow
03:00 Legend Double Dagger -1.5 -2.5 93 32 11 3.2 100.79   -5 Snow
04:00 Legend Double Dagger -1.7 -2.4 95 10 9 2.4 100.66   -5 Snow
05:00 Legend Double Dagger -1.6 -2.3 95 18 8 2.4 100.54   -5 Snow
06:00 Legend Double Dagger -1.5 -2.1 96 19 13 2.4 100.42   -6 Snow
07:00 Legend Double Dagger -1.2 -2.2 93 20 15 16.1 100.29   -6 Snow
08:00 Legend Double Dagger -0.4 -2.2 88 19 18 16.1 100.22   -5 LegendNANA
09:00 Legend Double Dagger 0.0 -2.2 85 18 5 16.1 100.16   -2 LegendNANA
10:00 Legend Double Dagger 0.2 -2.0 85 19 15 16.1 100.10     LegendNANA
11:00 Legend Double Dagger 0.0 -3.4 78 15 5 16.1 100.08   -2 LegendNANA
12:00 Legend Double Dagger -0.6 -3.2 83 35 8 16.1 100.03   -3 LegendNANA
13:00 Legend Double Dagger -0.3 -3.7 78 19 15 16.1 99.99   -5 LegendNANA
14:00 Legend Double Dagger -0.1 -3.3 79 18 15 16.1 100.01   -5 LegendNANA
15:00 Legend Double Dagger -0.2 -2.6 84   0 16.1 100.03     LegendNANA
16:00 Legend Double Dagger -0.3 -2.8 83 19 5 16.1 100.01   -2 LegendNANA
17:00 Legend Double Dagger -0.5 -2.9 84 LegendMM 4 16.1 99.98   -2 LegendNANA
18:00 Legend Double Dagger -0.7 -3.1 84 20 8 16.1 99.96   -4 LegendNANA
19:00 Legend Double Dagger -0.9 -2.8 87 LegendMM 4 16.1 99.95   -2 LegendNANA
20:00 Legend Double Dagger -2.5 -3.8 91 19 9 16.1 99.92   -6 LegendNANA
21:00 Legend Double Dagger -0.6 -1.7 92 19 15 16.1 99.90   -5 LegendNANA
22:00 Legend Double Dagger -1.4 -2.4 93 21 15 16.1 99.84   -6 LegendNANA
23:00 Legend Double Dagger -0.8 -2.2 90 17 11 16.1 99.83   -5 LegendNANA

Notes on Data Quality.

Legend

  • E = Estimated
  • M = Missing
  • NA = Not Available
  • ‡ = Partner data that is not subject to review by the National Climate Archives
Date modified: